NIMBUS 2 DEB, 25526

Orbit data source: Space-Track

NIMBUS 2 DEB, 25526 is space debris in SSO originally from a launch on Sun, 15 May 1966 UTC launched from the Air Force Western Test Range (AFWTR). Debris objects in space refer to the collection of defunct objects orbiting the Earth. Examples of debris include non-operational satellites, rocket bodies, and fragments generated from explosions, collisions, or faulty payload assembly.

Loading next visibility...
Identifier
25526, 1966-040D
Orbit
SSO
Country
Flag of USUS
Related business
Manufacturer
Unknown
Mission
Spacecraft
Bus & Motor
Unknown
Mass
Unknown
Launch date (UTC)
1966-05-15 (59 years ago)
Launch vehicle
Unknown
Launch site
Air Force Western Test Range (AFWTR)
Object type
Payload
Rocket body
Debris
Shape & HBR
Unknown shape, 0.1 m
Radar Cross Section
Small (<0.1 m²)

Expand to show TLE details & history
Last TLE update: 8 hours ago

TLE from 8 hours ago
0 NIMBUS 2 DEB
1 25526U 66040D   25290.72128075  .00004434  00000-0  44110-2 0  9993
2 25526 100.5845  12.4419 0035883  27.7917 122.5851 13.78465032632178
Epoch: 2025-10-17T17:18Z
TLE epoch observation values (Epoch: 2025-10-17T17:18:38.656Z)
Latitude
28.77915°
Longitude
-87.82114°
Altitude
987.052 km
Speed
7.354 km/s
True Right ascension
13h 13m 12s
True Declination
28° 38' 20"
Sunlit
Object was in daylight at epoch
Visualization orbit readout
Latitude
Unknown
Longitude
Unknown
Altitude
Unknown
Speed
Unknown
Apparent Right ascension
Unknown
Apparent Declination
Unknown
Sunlit
N/A
Visualization observer readout
Local Sidereal Time
19:59:34
Azimuth
Unknown
Elevation
Unknown
Doppler factor
Unknown
Orbital elements
Apogee altitude
993.003 km
Perigee altitude
940.292 km
Semi-major axis
7,344.785 km
Eccentricity
0.00359
Inclination
100.5845°
RAAN
12.4419°
Arg. of periapsis
27.7917°
True anomaly
122.93073°
Mean anomaly
122.5851°
Eccentric anomaly
122.758°
Mean motion
3.44806 °/min
Orbital period
104.41 mins
BSTAR
0.004411
Loading maneuver chart data...
Computing Atmospheric mass density...
Loading historical data...
Loading historical data...
Loading historical data...
Loading historical data...
Loading historical data...
Loading historical data...
Loading historical data...

Documentation

Showing up to 5 results
|